Location: Newark
(41.7772°N, 74.7403°W)
Time: 13:36:14
(UTC+00:00)

Transit 4A - Pass Details

Date: 03 June 2020
Orbit: 866 x 978 km, 66.8° (Epoch: 06 July)

Event Time Altitude Azimuth Distance (km) Brightness Sun altitude
Exits shadow 06:04:15 51° 236° (SW) 1,089 7.9 -24.0°
Maximum altitude 06:05:41 72° 302° (WNW) 920 7.8 -23.9°
Drops below altitude 10° 06:11:36 10° 27° (NNE) 2,563 11.3 -23.6°
Sets 06:14:09 0° 29° (NNE) 3,522 12.3 -23.4°
